Regional Weather Roundup
Issued by NWS

Home | Current Version | Previous Version | Graphics & Text | Print | Product List | Glossary On
Versions: 1 2 3 4 5 6 7 8 9 10 11 12 13 14 15 16 17 18 19 20 21 22 23 24 25 26 27 28 29 30 31 32 33 34 35 36 37 38 39 40 41 42 43 44 45 46 47 48 49 50
000
ASUS45 KSLC 250610
RWRUT

UTAH REGIONAL WEATHER ROUNDUP
NATIONAL WEATHER SERVICE SALT LAKE CITY UT
1100 PM MST MON NOV 24 2014

UTZ001>011-023>025-250700-

NORTHERN UTAH

CITY           SKY/WX    TMP DP  RH WIND       PRES   REMARKS
HILL AFB       CLEAR     29  19  66 E7        30.42S WCI  22
LOGAN          CLEAR     26  21  81 CALM      30.42S
OGDEN          CLEAR     28  21  75 S8        30.43R WCI  20
PROVO AIRPORT  CLEAR     25  19  80 CALM      30.47S
SALT LAKE CITY PTCLDY    30  20  66 SE8       30.43F WCI  22
VERNAL         PTCLDY    22  12  65 N5        30.37R WCI  16
WENDOVER       PTCLDY    34  19  55 W3        30.42F
HEBER CITY     PTCLDY    18  12  79 SE5       30.45R WCI  11
WEST JORDAN    CLEAR     28  21  74 S7        30.44F WCI  21

$$

UTZ012>022-026-027-250700-

SOUTHERN/CENTRAL UTAH

CITY           SKY/WX    TMP DP  RH WIND       PRES   REMARKS
BLANDING       CLEAR     25   8  49 W6        30.45S WCI  18
BRYCE CANYON   CLEAR     18   2  49 NW12      30.42F WCI   5
CEDAR CITY     PTCLDY    17  10  74 NW5       30.46R WCI  10
DELTA          CLEAR     24  19  80 S8        30.47S WCI  15
MILFORD        CLEAR     20  14  77 S5        30.48R WCI  13
MOAB/CYNLANDS  CLEAR     27   9  46 W3        30.39R
PRICE          CLEAR     20   9  62 NE3       30.37S
ST GEORGE      CLEAR     43  10  26 SW3       30.48R
KANAB          CLEAR     27   3  36 CALM      30.50R

$$

REGIONAL REPORTS     COLORADO/ARIZONA

CITY           SKY/WX    TMP DP  RH WIND       PRES   REMARKS
CRAIG, CO      PTCLDY     5   2  87 CALM      30.36R
GRAND JUNCTION CLEAR     21  16  81 E6        30.38R WCI  13
RIFLE          PTCLDY    11   7  84 SE6       30.38R WCI   1
MONTROSE       PTCLDY    21  15  78 SE10      30.40R WCI  10
CORTEZ         CLEAR     14   9  80 E6        30.40R HAZE    WCI   5
PAGE, AZ       NOT AVBL
GRAND CANYON   PTCLDY    16  -7  35 E3        30.45R
KINGMAN        CLEAR     31   7  36 E3        30.42R
FLAGSTAFF      CLEAR     29  -2  26 E14G22    30.38R WCI  18

$$

REGIONAL REPORTS    NEVADA/IDAHO/WYOMING

CITY           SKY/WX    TMP DP  RH WIND       PRES   REMARKS
LAS VEGAS, NV  CLEAR     50  12  21 SW5       30.38S
ELY            CLEAR     16  16 100 S12       30.47S WCI   3
ELKO           MOCLDY    32  23  69 CALM      30.43S
POCATELLO, ID  CLOUDY    37  24  59 S12       30.33F WCI  29
BURLEY         PTCLDY    36  23  59 SW12      30.34F WCI  28
EVANSTON, WY   PTCLDY    17  13  84 SW13      30.34F WCI   4
ROCK SPRINGS   MOCLDY    20  13  74 W24       30.27F WCI   3

$$



USA.gov is the U.S. government's official web portal to all federal, state and local government web resources and services.